"Pseudo-MPEC" for C0GVF75

Created 2023 Mar 23 10:22:05 UT using Find_Orb

Click here for an explanation of pseudo-MPECs

 
 Astrometry: 
     C0GVF75* C2023 03 18H7mlMUl]Mq),y^[NU'P]7e=Bo;nd=R2TFY'UK?\Qje8C#sq2Go7gV00
     C0GVF75  C2023 03 18f4\'(EZ3SZl5iq.KHxj:Bmhm%h;NZ(;Hv*?u,OyRBILHK$8f`Tn?V00
     C0GVF75  C2023 03 18vcH0Ec2c9(5[4d4@\Vib$;fq[AWi5P?xx*C;,UYij:W.(xj^gR=\V00
     C0GVF75 |C2023 03 19rhq9y`NOZNdIi0D9AstrometrySh-0v5.fNPrkfk3^^2D3aXm5Bq807
     C0GVF75 |C2023 03 19YI'W4FJDB_-c37[X#kae#`R?ETagdwredacted;EeE*0Ajq*W.@6807
     C0GVF75 |C2023 03 191[M?93qX+qflgT0?Sk*Runs?e$wMxg9xf;yiM^::+(H;!U`+-6U?807
     C0GVF75 |C2023 03 20^,m\M,5PL-E%Psckgns5dNDJYQ`31p-J`P`uZ2\%73xT$?IQ.3%R807
     C0GVF75 |C2023 03 2078]RLoHY?$3%TsU4_7nPJF*(f-Ytt8M2Q0d#Yf6RjI2yvgg5X[e]807
     C0GVF75 |C2023 03 20\IeH1yB+click7I=h4[Em![F^2EZSfoe4H^8h`IA(T2,L!@a3c63807
     C0GVF75 1C2023 03 22.01445 12 29 52.19 +00 06 42.2    ~3M1M 21.7 VXNEOCP033
     C0GVF75 1C2023 03 22.01803 12 29 51.85 +00 06 50.4    ~3M1M 21.6 VXNEOCP033
     C0GVF75 1C2023 03 22.02162 12 29 51.53 +00 06 57.6    ~3M1M 21.5 VXNEOCP033
     C0GVF75 |C2023 03 22/ty.URt$Pm@h+bN.)Wchq]PKpma^V\]dkj8I.C(1!k`/Nqj4n;qx807
     C0GVF75 |C2023 03 22gAEN%!d=?U-2YoUuQfQBL:qw@;1iW(gDJ3L)h7F.F-@%O!T;,PBF807
     C0GVF75 |C2023 03 22!sA=+0t3Qr7DA-5go\Oia+93Hj/Iherek)Db4.\!_.9$-4eBUZX*807
     C0GVF75 pC2023 03 22I@6A6OT9sdeG`'[n6-LO13cP0s0h#3bmTyCcl'.[NH=cp[y#-)iAL01
     C0GVF75 pC2023 03 22F?Q?*sC=\jL535'*p5?D]\a-=`0%Cyjsfor+/#$,@`wlOd[VHQEBL01
     C0GVF75 pC2023 03 22O\$jivQ!NS!L,(explanationOdhJK?T^R1,]VNg9-W\)b\^7j_/L01
     C0GVF75 pC2023 03 22E7F/p4yfC]TDVdrCW%:b=vFT@_c]^U]H5S\4?%L^3p:xh7UH7od.L01
     C0GVF75 pC2023 03 22F1bfp#U[`#pm9^3s0q`Ze8#nKm=i=^KD;ZYV7)I*B\W,-grVjN$oL01

Station data:
(033) Karl Schwarzschild Observatory, Tautenburg  (N50.980137 E11.711240)
   Germany.  Observers S. Melnikov, C. Hoegner, B. Stecklum. Measurer B.
   Stecklum. 1.34-m f/3 Schmidt + CCD.
(807) Cerro Tololo Observatory, La Serena  (S30.169133 W70.805900)  Chile.
   Observer R. Holmes. 0.61-m f/6.5 astrograph + CCD.
(L01) Višnjan Observatory, Tičan  (N45.290897 E13.749300)  Croatia.
   Observers K. Korlević, D. Pujagic, V. Dobos. Measurers D. Pujagic, K.
   Korlević. 1.0-m f/2.9 reflector + CCD.
(V00) Kitt Peak-Bok  (N31.963125 W111.600190)  US/Arizona.  Observers T. A.
   Pruyne, B. M. Africano, E. J. Christensen, G. A. Farneth, D. C. Fuls, A.
   R. Gibbs, A. D. Grauer, H. Gröller, J. A. Johnson, R. A. Kowalski, S. M.
   Larson, G. J. Leonard, D. Rankin, R. L. Seaman, F. C. Shelly, K. W.
   Wierzchoś. 2.25-m reflector + CCD.

Orbital elements:  C0GVF75
   Perihelion 2023 Jun 3.81448 +/- 0.107 TT = 19:32:51 (JD 2460099.31448)
Epoch 2023 Mar 22.0 TT = JDT 2460025.5   Earth MOID: 0.0257   Ve: 0.0404
M 321.18032959 +/- 0.33             Ma: 0.0887                   AutoNEOCP
n   0.52590857 +/- 0.00382          Peri.  113.22071 +/- 0.013
a   1.52006635 +/- 0.00736          Node   174.40659 +/- 0.021
e   0.5693988 +/- 0.00291           Incl.    4.26671 +/- 0.027
P   1.87/684.52d           H 24.24  G  0.15   U  9.0
q 0.65454229 +/- 0.00126    Q 2.38559041 +/- 0.016        (J2000 ecliptic)
From 20 observations 2023 Mar. 18-22; mean residual 0".29
Residuals in arcseconds: 
230318 V00  .11-  .40-    230320 807  .11-  .15+    230322 807  .23-  .17-    
230318 V00  .01-  .03+    230320 807  .05+  .08+    230322 L01  .17-  .05+    
230318 V00  .34+  .13+    230322 033  .00   .57-    230322 L01  .18-  .18+    
230319 807  .45-  .36+    230322 033  .10-  .20+    230322 L01  .35-  .41+    
230319 807  .12+  .05+    230322 033  .12+  .05-    230322 L01  .38+  .54+    
230319 807  .09+  .00     230322 807  .03+  .28-    230322 L01  .96+  .33-    
230320 807  .13+  .11+    230322 807  .43-  .18-    

Ephemerides (geocentric):
Date (UTC) HH   RA             Dec           delta  r     elong  mag " sig PA
---- --------  ------------   ------------  ------ ------ -----  --- --------
2023 03 23 10  12 27 47.692   +00 59 01.89  .20573 1.2016 174.7 21.6 .190 158
2023 03 23 11  12 27 43.701   +01 00 40.61  .20532 1.2012 174.8 21.6 .198 157
2023 03 23 12  12 27 39.692   +01 02 19.71  .20490 1.2008 174.8 21.6 .206 156
2023 03 23 13  12 27 35.666   +01 03 59.21  .20449 1.2004 174.8 21.6 .215 155
2023 03 23 14  12 27 31.622   +01 05 39.09  .20408 1.2000 174.9 21.6 .224 154
2023 03 23 15  12 27 27.561   +01 07 19.37  .20367 1.1996 174.9 21.6 .233 153
2023 03 23 16  12 27 23.482   +01 09 00.05  .20326 1.1993 174.9 21.6 .242 152
2023 03 23 17  12 27 19.386   +01 10 41.13  .20285 1.1989 175.0 21.6 .251 152
2023 03 23 18  12 27 15.271   +01 12 22.60  .20244 1.1985 175.0 21.6 .261 151
2023 03 23 19  12 27 11.139   +01 14 04.48  .20203 1.1981 175.0 21.6 .270 150
2023 03 23 20  12 27 06.989   +01 15 46.76  .20162 1.1977 175.0 21.6 .280 150
2023 03 23 21  12 27 02.820   +01 17 29.45  .20121 1.1973 175.1 21.6 .290 149
2023 03 23 22  12 26 58.634   +01 19 12.55  .20080 1.1969 175.1 21.6 .300 149
2023 03 23 23  12 26 54.429   +01 20 56.06  .20039 1.1965 175.1 21.6 .311 148
2023 03 24 00  12 26 50.206   +01 22 39.98  .19998 1.1961 175.2 21.6 .321 148
2023 03 24 01  12 26 45.965   +01 24 24.32  .19957 1.1957 175.2 21.5 .332 147
2023 03 24 02  12 26 41.705   +01 26 09.07  .19916 1.1954 175.2 21.5 .343 147
2023 03 24 03  12 26 37.426   +01 27 54.24  .19876 1.1950 175.2 21.5 .354 146
2023 03 24 04  12 26 33.129   +01 29 39.84  .19835 1.1946 175.2 21.5 .365 146
2023 03 24 05  12 26 28.813   +01 31 25.85  .19794 1.1942 175.3 21.5 .376 146
2023 03 24 06  12 26 24.478   +01 33 12.30  .19753 1.1938 175.3 21.5 .388 145
2023 03 24 07  12 26 20.125   +01 34 59.17  .19713 1.1934 175.3 21.5 .400 145
2023 03 24 08  12 26 15.752   +01 36 46.47  .19672 1.1930 175.3 21.5 .412 145
2023 03 24 09  12 26 11.360   +01 38 34.20  .19631 1.1926 175.3 21.5 .424 144
2023 03 24 10  12 26 06.949   +01 40 22.36  .19591 1.1922 175.3 21.5 .436 144
2023 03 24 11  12 26 02.518   +01 42 10.97  .19550 1.1918 175.4 21.5 .448 144
2023 03 24 12  12 25 58.068   +01 44 00.01  .19509 1.1914 175.4 21.5 .461 143
2023 03 24 13  12 25 53.598   +01 45 49.50  .19469 1.1911 175.4 21.5 .473 143
2023 03 24 14  12 25 49.109   +01 47 39.42  .19428 1.1907 175.4 21.5 .486 143
2023 03 24 15  12 25 44.600   +01 49 29.80  .19388 1.1903 175.4 21.5 .499 143
2023 03 24 16  12 25 40.072   +01 51 20.62  .19347 1.1899 175.4 21.5 .513 142
2023 03 24 17  12 25 35.523   +01 53 11.89  .19307 1.1895 175.4 21.5 .526 142
2023 03 24 18  12 25 30.955   +01 55 03.62  .19266 1.1891 175.4 21.4 .540 142
2023 03 24 19  12 25 26.366   +01 56 55.80  .19226 1.1887 175.4 21.4 .553 142
2023 03 24 20  12 25 21.757   +01 58 48.44  .19185 1.1883 175.4 21.4 .567 141
2023 03 24 21  12 25 17.127   +02 00 41.53  .19145 1.1879 175.4 21.4 .581 141
2023 03 24 22  12 25 12.478   +02 02 35.10  .19104 1.1875 175.4 21.4 .596 141
2023 03 24 23  12 25 07.807   +02 04 29.12  .19064 1.1871 175.4 21.4 .610 141
2023 03 25 00  12 25 03.117   +02 06 23.62  .19024 1.1868 175.4 21.4 .625 141
2023 03 25 01  12 24 58.405   +02 08 18.58  .18983 1.1864 175.4 21.4 .640 141
2023 03 25 02  12 24 53.672   +02 10 14.02  .18943 1.1860 175.4 21.4 .655 140
2023 03 25 03  12 24 48.919   +02 12 09.93  .18903 1.1856 175.4 21.4 .670 140
2023 03 25 04  12 24 44.144   +02 14 06.32  .18863 1.1852 175.4 21.4 .685 140
2023 03 25 05  12 24 39.349   +02 16 03.19  .18822 1.1848 175.4 21.4 .701 140
2023 03 25 06  12 24 34.532   +02 18 00.55  .18782 1.1844 175.4 21.4 .716 140
2023 03 25 07  12 24 29.693   +02 19 58.38  .18742 1.1840 175.4 21.4 .732 140
2023 03 25 08  12 24 24.833   +02 21 56.71  .18702 1.1836 175.4 21.4 .748 140
2023 03 25 09  12 24 19.952   +02 23 55.53  .18662 1.1832 175.4 21.4 .765 140